EHI
0 0 0 0 0 0 0 0 0 0 0 0 0 0 0 0 0 0 0 0 0 0 0 0 0 0 0 0 0 0 0 0 0 0 0 0 0 0 0 0 0 0 0
0 0 0 0 0 0 0 0 0 0 0 0 0 0 0 0 0 0 0 0 0 0 0 0 0 0 0 0 0 0 0 0 0 0 0 0 0 0 0 0 0 0 0
0 0 0 0 0 0 0 0 0 0 0 0 0 0 0 0 0 0 0 0 0 0 0 0 0 0 0 0 0 0 0 0 0 0 0 0 0 0 0 0 0 0 0
0 0 0 0 0 0 0 0 0 0 0 0 0 0 0 0 0 0 0 0 0 0 0 0 0 0 0 0 0 0 0 0 0 0 0 0 0 0 0 0 0 0 0
0 0 0 0 0 0 0 0 0 0 0 0 0 0 0 0 0 0 0 0 0 0 0 0 0 0 0 0 0 0 0 0 0 0 0 0 0 0 0 0 0 0 0
0 0 0 0 0 0 0 0 0 0 0 0 0 0 0 0 0 0 0 0 0 0 0 0 0 0 0 0 0 0 0 0 0 0 0 0 0 0 0 0 0 0 0
0 0 0 0 0 0 0 0 0 0 0 0 0 0 0 0 0 0 0 0 0 0 0 0 0 0 0 0 0 0 0 0 0 0 0 0 0 0 0 0 0 0 0
0 0 0 0 0 0 0 0 0 0 0 0 0 0 0 0 0 0 0 0 0 0 0 0 0 0 0 0 0 0 0 0 0 0 0 0 0 0 0 0 0 0 0
0 0 0 0 0 0 0 0 0 0 0 0 0 0 0 0 0 0 0 0 0 0 0 0 0 0 0 0 0 0 0 0 0 0 0 0 0 0 0 0 0 0 0
0 0 0 0 0 0 0 0 0 0 0 0 0 0 0 0 0 0 0 0 0 0 0 0 0 0 0 0 0 0 0 0 0 0 0 0 0 0 0 0 0 0 0
0 0 0 0 0 0 0 0 0 0 0 0 0 0 0 0 0 0 0 0 0 0 0 0 0 0 0 0 0 0 0 0 0 0 0 0 0 0 0 0 0 0 0
0 0 0 0 0 0 0 0 0 0 0 0 0 0 0 0 0 0 0 0 0 0 0 0 0 0 0 0 0 0 0 0 0 0 0 0 0 0 0 0 0 0 0
0 0 0 0 0 0 0 0 0 0 0 0 0 0 0 0 0 0 0 0 0 0 0 0 0 0 0 0 0 0 0 0 0 0 0 0 0 0 0 0 0 0 0
0 0 0 0 0 0 0 0 0 0 0 0 0 0 0 0 0 0 0 0 0 0 0 0 0 0 0 0 0 0 0 0 0 0 0 0 0 0 0 0 0 0 0
0 0 0 0 0 0 0 0 0 0 0 0 0 0 0 0 0 0 0 0 0 0 0 0 0 0 0 0 0 0 0 0 0 0 0 0 0 0 0 0 0 0 0
0 0 0 0 0 0 0 0 0 0 0 0 0 0 0 0 0 0 0 0 0 0 0 0 0 0 0 0 0 0 0 0 0 0 0 0 0 0 0 0 0 0 0
0 0 0 0 0 0 0 0 0 0 0 0 0 0 0 0 0 0 0 0 0 0 0 0 0 0 0 0 0 0 0 0 0 0 0 0 0 0 0 0 0 0 0
0 0 0 0 0 0 0 0 0 0 0 0 0 0 0 0 0 0 0 0 0 0 0 0 0 0 0 0 0 0 0 0 0 0 0 0 0 0 0 0 0 0 0
0 0 0 0 0 0 0 0 0 0 0 0 0 0 0 0 0 0 0 0 0 0 0 0 0 0 0 0 0 0 0 0 0 0 0 0 0 0 0 0 0 0 0
0 0 0 0 0 0 0 0 0 0 0 0 0 0 0 0 0 0 0 0 0 0 0 0 0 0 0 0 0 0 0 0 0 0 0 0 0 0 0 0 0 0 0
0 0 0 0 0 0 0 0 0 0 0 0 0 0 0 0 0 0 0 0 0 0 0 0 0 0 0 0 0 0 0 0 0 0 0 0 0 0 0 0 0 0 0
0 0 0 0 0 0 0 0 0 0 0 0 0 0 0 0 0 0 0 0 0 0 0 0 0 0 0 0 0 0 0 0 0 0 0 0 0 0 0 0 0 0 0
0 0 0 0 0 0 0 0 0 0 0 0 0 0 0 0 0 0 0 0 0 0 0 0 0 0 0 0 0 0 0 0 0 0 0 0 0 0 0 0 0 0 0
0 0 0 0 0 0 0 0 0 0 0 0 0 0 0 0 0 0 0 0 0 0 0 0 0 0 0 0 0 0 0 0 0 0 0 0 0 0 0 0 0 0 0
0 0 0 0 0 0 0 0 0 0 0 0 0 0 0 0 0 0 0 0 0 0 0 0 0 0 0 0 0 0 0 0 0 0 0 0 0 0 0 0 0 0 0
0 0 0 0 0 0 0 0 0 0 0 0 0 0 0 0 0 0 0 0 0 0 0 0 0 0 0 0 0 0 0 0 0 0 0 0 0 0 0 0 0 0 0
Wind_Speed
1 1 2 2 3 4 5 5 6 5 5 4 3 3 4 4 4 4 6 6 5 5 4 3 3 3 2 3 3 2 2 2 1 1 1 2 1 1 1 1 1 1 1
1 1 1 2 3 3 4 4 5 5 5 4 2 1 2 2 3 4 5 6 6 5 4 4 3 3 2 3 3 2 1 1 1 1 1 1 2 2 1 1 1 1 1
3 1 1 1 2 2 3 3 5 5 4 5 3 3 2 2 3 5 5 6 6 6 5 5 4 3 2 2 2 2 1 1 1 1 0 1 2 2 2 1 1 1 1
2 2 1 1 1 2 2 2 4 4 4 4 3 3 3 3 4 4 4 6 6 5 5 5 5 4 3 3 3 3 2 2 2 1 1 2 1 1 2 2 1 1 2
3 2 2 2 2 1 1 2 3 3 3 3 3 3 3 2 3 4 5 6 5 5 5 5 5 4 4 4 4 3 3 2 2 2 2 2 2 2 2 4 2 2 2
1 1 1 1 1 1 2 2 3 4 3 3 3 3 4 4 5 5 5 5 4 4 5 5 5 5 4 4 4 4 4 4 4 3 2 2 2 2 2 3 4 4 3
1 1 1 1 1 2 2 3 3 4 3 3 3 3 3 4 4 4 5 5 5 5 5 6 5 5 5 5 5 4 4 4 4 4 4 3 3 3 3 3 3 4 3
2 2 2 1 1 2 2 3 3 4 3 3 3 3 4 3 3 4 4 4 4 5 6 6 6 6 6 6 5 4 5 4 5 5 5 4 4 3 4 3 3 4 3
2 1 1 1 2 2 2 3 3 3 3 3 4 3 4 4 4 5 4 4 4 6 6 6 6 6 6 6 5 4 5 5 5 5 5 5 4 4 4 4 4 4 5
1 1 1 2 2 2 2 3 2 2 3 3 3 4 4 4 5 5 5 5 6 6 7 6 6 6 6 6 5 5 5 5 5 5 5 5 4 4 4 4 4 4 5
2 1 2 2 2 2 2 3 3 3 3 4 4 4 5 5 5 5 5 6 6 6 7 7 7 7 7 6 6 6 6 6 6 6 6 6 6 5 4 4 4 4 4
1 2 2 2 2 3 3 3 3 3 4 4 4 5 5 5 5 6 6 6 6 6 7 7 7 7 7 7 7 7 7 7 7 7 7 7 6 6 5 5 5 5 5
2 2 2 2 2 3 3 4 4 3 4 4 4 5 5 5 6 7 7 6 7 7 7 7 7 8 8 8 8 8 8 8 8 7 8 8 7 7 6 6 6 5 5
2 2 2 3 3 3 3 4 5 4 4 4 5 5 6 6 6 7 7 7 7 7 7 8 7 8 8 8 8 9 9 8 8 8 8 8 8 8 8 7 7 6 5
2 3 3 3 3 4 4 4 5 5 5 5 5 6 6 6 6 7 7 7 7 8 8 8 8 8 7 7 9 9 9 9 9 8 8 9 10 12 10 7 6 6 6
3 4 4 4 4 5 5 5 5 5 5 5 6 6 6 6 6 7 7 7 7 7 8 8 8 8 7 13 16 13 9 8 9 9 8 9 10 12 14 13 12 9 8
4 4 4 4 5 5 5 6 6 6 5 6 6 6 6 7 7 7 7 7 7 7 8 8 8 9 10 16 16 16 10 8 8 8 8 8 8 10 8 10 12 11 12
4 4 4 5 5 5 5 5 5 5 6 6 7 6 6 7 7 7 7 7 7 7 8 8 8 9 11 16 17 17 10 8 8 8 9 9 8 8 9 8 8 8 8
4 4 4 4 4 5 5 5 5 5 6 6 7 7 7 7 7 8 8 7 7 7 8 8 8 8 11 15 17 16 8 7 8 8 8 9 8 12 13 9 8 8 7
3 3 3 3 4 5 4 5 5 5 6 7 8 7 7 7 8 8 8 7 7 8 8 8 8 8 9 14 16 15 6 7 6 6 7 11 11 12 13 9 8 8 7
3 3 3 3 4 4 4 5 5 6 7 7 8 7 7 7 7 7 6 6 7 7 7 8 8 7 9 12 15 15 7 6 6 6 5 6 11 13 13 11 7 9 7
4 3 3 4 4 4 4 5 6 7 6 7 7 7 6 6 6 6 6 6 6 6 6 6 7 6 7 10 12 15 13 11 6 6 5 6 11 12 11 8 7 8 6
4 4 4 5 5 4 4 5 7 6 6 6 6 6 7 6 6 5 6 5 5 5 6 6 6 7 6 7 13 14 15 14 7 5 9 10 10 8 5 5 6 5 3
4 4 4 5 6 5 5 5 6 5 5 5 6 6 6 6 5 5 5 5 5 5 6 6 6 6 6 6 6 6 7 9 7 5 6 8 7 5 5 4 3 3 3
4 4 4 5 6 6 6 6 5 4 4 5 5 6 6 5 5 5 4 6 4 6 7 5 5 6 7 9 14 10 7 6 5 5 3 3 3 2 2 2 2 2 2
4 5 5 6 6 6 6 6 5 4 4 5 5 4 5 5 5 5 6 8 9 12 12 12 10 8 11 15 15 14 13 13 10 5 3 3 3 3 3 3 3 2 2
Wind_Direction
289 8 21 25 28 20 16 16 10 7 8 7 3 355 352 351 355 359 358 357 356 354 356 351 347 352 346 339 339 343 351 354 357 6 337 319 295 284 285 287 275 302 322
306 345 9 21 22 13 6 12 7 3 6 359 348 331 321 332 344 351 358 359 356 349 349 353 345 343 343 346 343 350 343 319 341 360 331 318 320 324 307 298 284 313 334
227 258 299 334 6 2 357 357 358 357 0 359 356 357 3 354 357 356 353 352 351 351 346 343 343 338 337 320 319 316 303 274 268 277 212 216 253 309 299 285 282 310 321
227 235 250 304 317 314 340 352 353 352 360 7 10 13 12 356 337 329 330 337 343 346 348 344 342 337 327 317 306 317 296 273 265 272 270 266 235 249 290 291 304 313 296
219 229 243 267 295 322 339 338 345 350 2 9 10 7 359 338 326 330 336 340 340 342 342 339 338 336 327 314 305 304 299 277 263 252 259 268 278 250 249 274 294 302 286
232 244 260 287 318 340 355 352 351 346 359 5 4 360 348 341 340 339 336 336 332 331 338 332 332 328 322 315 306 297 289 281 273 263 250 239 238 237 238 257 278 285 293
210 237 257 292 314 343 347 346 347 341 347 354 351 342 335 333 327 322 324 327 327 325 327 327 321 318 314 308 307 303 290 279 275 264 254 249 246 244 245 249 268 278 288
227 244 246 252 295 318 328 334 334 328 334 341 332 332 332 324 318 315 311 312 310 310 313 315 314 310 309 310 307 299 295 285 273 272 260 252 250 239 235 232 239 270 278
243 258 296 314 313 302 309 316 318 317 324 327 324 326 329 323 314 312 307 306 308 309 314 313 311 311 308 306 304 296 293 291 281 275 271 259 254 247 243 236 227 231 256
278 314 326 315 292 284 309 327 317 306 311 320 322 327 321 315 313 313 310 308 308 309 310 310 310 310 307 301 295 291 291 289 289 285 277 268 259 253 247 240 236 236 240
262 290 309 310 320 336 336 336 328 324 321 320 317 316 313 313 312 310 308 306 307 309 310 308 308 305 303 300 293 289 287 283 284 285 281 278 262 253 248 244 240 239 237
286 307 302 319 336 336 334 332 318 311 308 307 309 309 309 313 313 309 307 308 306 305 307 306 305 302 301 299 294 288 286 279 277 278 275 278 276 258 251 243 241 241 236
320 320 319 317 315 320 323 322 311 302 305 307 306 309 310 311 308 307 307 308 307 305 305 303 300 300 300 297 293 286 279 273 270 268 268 269 270 263 255 247 243 242 244
297 306 310 305 305 310 311 313 311 306 305 305 303 302 301 300 300 302 304 305 305 305 303 300 298 297 296 295 292 289 280 271 267 263 261 261 258 259 255 249 243 237 236
296 300 302 303 306 310 310 310 308 313 311 302 299 297 297 299 301 303 303 304 304 305 303 301 300 299 294 289 289 284 279 274 269 264 260 259 260 260 256 252 242 234 232
288 295 299 307 307 308 309 310 306 307 308 302 293 298 303 304 304 304 305 305 304 303 303 301 299 298 297 299 299 296 285 280 274 268 264 263 264 266 264 263 255 244 237
290 291 290 290 295 297 302 300 299 305 308 305 301 302 303 304 305 306 306 303 302 302 301 298 296 294 295 301 302 300 295 282 277 273 268 266 263 267 261 261 259 253 250
292 291 290 293 297 297 299 300 303 304 307 308 306 304 304 303 304 302 301 300 300 299 297 297 296 295 298 305 306 305 300 284 274 269 263 262 262 259 254 249 249 245 246
281 281 282 288 295 298 301 306 307 306 307 307 309 307 304 301 300 299 298 299 298 298 296 295 294 296 300 306 308 307 295 285 277 272 267 261 256 259 260 253 248 248 249
301 302 306 307 304 304 308 306 305 307 305 304 303 301 300 299 295 291 293 295 296 295 299 300 298 295 297 306 311 312 298 290 284 277 271 267 264 262 260 249 243 243 247
316 317 310 305 302 308 312 308 307 303 303 305 304 302 300 296 294 291 291 295 297 300 299 299 299 295 300 309 314 316 308 292 287 284 281 273 274 272 266 263 250 246 248
326 323 315 311 312 313 315 310 303 304 309 308 306 304 303 301 306 303 297 296 297 300 299 300 304 300 303 312 314 317 315 307 292 286 284 280 283 280 272 270 266 262 255
314 314 308 310 312 312 309 300 302 309 310 310 307 306 308 307 308 303 299 300 299 302 305 307 307 311 311 312 318 318 317 314 304 290 290 294 298 298 287 281 277 269 250
311 313 313 313 313 315 313 300 303 309 307 307 307 309 311 311 309 306 304 303 302 302 306 309 309 312 314 313 313 311 312 313 312 308 306 311 316 319 317 311 299 275 251
311 310 305 304 306 312 312 312 314 316 313 309 309 313 312 309 306 306 305 307 292 298 308 307 307 312 312 317 322 323 319 318 311 318 328 335 332 324 318 313 306 295 285
306 309 307 306 308 313 313 315 318 316 311 313 316 312 310 312 313 315 317 320 324 324 324 325 324 318 320 324 328 330 332 335 335 334 331 325 321 319 315 309 307 301 291